Location: Batang Balui
(2.7000°N, 113.7833°E)
Time: 00:18:46
(UTC+00:00)

Cosmos 1666 Rocket - Pass Details

Date: 03 December 2021
Orbit: 602 x 634 km, 82.5° (Epoch: 27 January)

Event Time Altitude Azimuth Distance (km) Brightness Sun altitude
Rises 11:21:11 0° 348° (NNW) 2,878 6.9 -16.4°
Reaches altitude 10° 11:23:27 10° 344° (NNW) 1,970 6.1 -16.9°
Maximum altitude 11:27:42 53° 266° (W) 751 4.3 -17.9°
Drops below altitude 10° 11:31:56 10° 189° (S) 1,959 6.5 -18.9°
Sets 11:34:10 0° 185° (S) 2,860 7.3 -19.4°
